sat.trackr.live / text

‹ back to catalog

STARLINK-31647

NORAD 59389 · 2024-062R

PAYLOAD ACTIVE UNKNOWN

§ Identity

Operator
Country
US
Launch date
2024-04-02
Launch site
AFWTR
Launch vehicle
Mass (kg)
RCS (m²)

Purposes: comms

External: N2YO · Heavens-Above · Gunter

§ Orbital elements

Epoch: 2026-05-25T00:25:49.876032Z

Period
94.11 min
Inclination
53.1592°
Eccentricity
0.0001773
Mean motion
15.30204175 rev/d
Perigee alt
474.0 km
Apogee alt
476.4 km
Semi-major
6,853.3 km
B*
2.8749e-4
RAAN
261.4410°
Arg perigee
91.9106°
Mean anomaly
268.2098°
Rev number
12,135

§ Raw data

STARLINK-316471 59389U 24062R   26145.01793838  .00008166  00000+0  28749-3 0  99982 59389  53.1592 261.4410 0001773  91.9106 268.2098 15.30204175121358

JSON: /api/v1/satellites/59389 · /tle

For live sub-satellite position, see the globe view (requires WebGL).

§ Visibility from observer

Set your observer location to see the next 7 days of passes ≥ 10°. The values pass through the URL so the page stays shareable.

No JS? Fill the form by hand. The geolocation button needs JavaScript.